This demonstration page uses our WeatherBlox Daily Observations layout. Learn more.

Left ArrowRight Arrow

Hourly Observations for April 22, 2017

Temp ( °F °C ) Dew Point ( °F °C ) Humidity (%) Winds ( mph kmh ) Pressure ( in mb ) Visibility ( mi km ) Precip ( " mm )
12:53 am 00:53 Clear 52 11.1 49 9.4 89 89 WNW 3 6 29.92 1013 10 16 0.00 0.00
1:53 am 01:53 Clear 50 10 48 8.9 93 93 undefined N/A 29.91 1013 10 16 0.00 0.00
2:53 am 02:53 Clear 49 9.4 46 7.8 90 90 Calm 29.89 1012 10 16 0.00 0.00
3:53 am 03:53 Clear 49 9.4 46 7.8 90 90 Calm 29.90 1012 10 16 0.00 0.00
4:53 am 04:53 Clear 50 10 47 8.3 89 89 Calm 29.91 1013 10 16 0.00 0.00
5:53 am 05:53 Clear 50 10 48 8.9 93 93 Calm 29.91 1013 10 16 0.00 0.00
6:53 am 06:53 Cloudy with Light Rain 52 11.1 48 8.9 86 86 Calm 29.94 1014 10 16 0.00 0.03
7:53 am 07:53 Mostly Cloudy 53 11.7 50 10 89 89 Calm 29.97 1015 10 16 0.00 0.03
8:53 am 08:53 Sunny 58 14.4 52 11.1 81 81 Calm 29.96 1015 10 16 0.00 0.00
9:53 am 09:53 Mostly Cloudy 61 16.1 50 10 67 67 VRB 3 6 29.96 1014 10 16 0.00 0.00
10:53 am 10:53 Mostly Cloudy 64 17.8 46 7.8 52 52 S 10 17 29.96 1014 10 16 0.00 0.00
11:53 am 11:53 Sunny 67 19.4 46 7.8 47 47 S 8 13 29.95 1014 10 16 0.00 0.00
12:53 pm 12:53 Sunny 69 20.6 47 8.3 45 45 S 12 19 29.93 1014 10 16 0.00 0.00
1:53 pm 13:53 Sunny 70 21.1 47 8.3 44 44 SSW 10 17 29.93 1014 10 16 0.00 0.00
2:53 pm 14:53 Sunny 70 21.1 49 9.4 47 47 S 10 17 29.92 1013 10 16 0.00 0.00
3:53 pm 15:53 Sunny 70 21.1 49 9.4 47 47 SSW 10 17 29.91 1013 10 16 0.00 0.00
4:53 pm 16:53 Sunny 69 20.6 50 10 51 51 S 9 15 29.90 1013 10 16 0.00 0.00
5:53 pm 17:53 Sunny 70 21.1 50 10 49 49 SSW 9 15 29.89 1012 10 16 0.00 0.00
6:53 pm 18:53 Mostly Sunny 70 21.1 51 10.6 51 51 SSW 7 11 29.88 1012 10 16 0.00 0.00
7:53 pm 19:53 Partly Cloudy 67 19.4 53 11.7 61 61 S 7 11 29.87 1012 10 16 0.00 0.00
8:53 pm 20:53 Cloudy with Light Rain 63 17.2 57 13.9 81 81 W 3 6 29.88 1012 7 11 0.02 0.51
9:53 pm 21:53 Mostly Cloudy with Light Rain 62 16.7 56 13.3 80 80 SSW 10 17 29.90 1012 10 16 0.01 0.25
10:53 pm 22:53 Partly Cloudy 59 15 51 10.6 75 75 SW 3 6 29.90 1012 10 16 0.00 0.03
11:53 pm 23:53 Mostly Clear 57 13.9 48 8.9 72 72 undefined N/A 29.90 1013 10 16 0.00 0.00

Powered by AerisWeather